Other Public Products
Issued by NWS Charleston, SC

Current Version | Previous Version | Graphics & Text | Print | Product List | Glossary On
Versions: 1 2 3 4 5 6 7 8 9 10 11 12 13 14 15 16 17 18 19 20 21 22 23 24 25 26 27 28 29 30 31 32 33 34 35 36 37 38 39 40 41 42 43 44 45 46 47 48 49 50
242 FPUS82 KCHS 200327 OPUCHS TEST...KCHS/KSAV Gateway Observations...TEST National Weather Service Charleston SC 1100 PM EDT WED JUL 19 2017 NOTE: "fair" indicates few or no clouds below 12,000 feet with no significant weather and/or obstructions to visibility. SCZ050-WAZ558-NCZ071-TXZ119-213-PAZ071-DCZ001-FLZ074-172-MI076- NYZ176-178-MAZ016-IL014-TNZ027-NJZ106-GAZ044-MD014-200400- ...Gateway Observations for Charleston International... CITY SKY/WX TMP DP RH WIND PRES REMARKS Chas Airport MOCLDY 73 71 93 CALM 30.09F Seattle PTCLDY 71 51 49 W6 30.00S Charlotte PTCLDY 73 67 81 CALM 30.11R Dallas DFW PTCLDY 88 70 55 SE9 30.03R HX 93 Dallas Love PTCLDY 91 67 44 SE12 30.04R HX 94 Philladelphia PTCLDY 82 73 74 S7 30.01S Wash National PTCLDY 85 75 72 S7 30.03R HX 93 Baltimore PTCLDY 81 75 82 SW3 30.02R Miami MOCLDY 80 75 84 CALM 30.12R Detroit MOCLDY 77 71 82 CALM 30.05S Newark CLOUDY 87 69 54 W8 29.98S HX 91 Laguardia MOCLDY 86 71 60 NE3 29.97S HX 91 J F K PTCLDY 81 76 84 SW6 29.99S Boston Logan CLOUDY 83 60 45 W7 29.95S Ft. Lauderdale CLOUDY 80 76 87 CALM 30.11R Chicago O`Hare TSTM 70 66 87 W5 30.12R FOG Chicago Midway TSTM 74 69 85 NW23G44 30.13R FOG Houston Bush PTCLDY 83 76 79 S3 30.06R HX 91 Houston Hobby PTCLDY 85 75 72 S6 30.06R HX 93 Nashville PTCLDY 79 73 82 S3 30.11S Atlanta PTCLDY 86 65 49 N6 30.11R $$ GAZ044-118-TXZ119-213-NCZ071-DCZ001-MDZ014-506-PAZ021-071-NJZ106- NYZ176-178-MAZ106-OHZ011-021-055-MIZ076-KYZ091-ILZ014-INZ047- MNZ060-ONZ431-200400- ...Gateway Observations for Savannah International... CITY SKY/WX TMP DP RH WIND PRES REMARKS Savannah Arpt CLOUDY 76 74 93 SW5 30.11F Atlanta PTCLDY 86 65 49 N6 30.11R Charlotte PTCLDY 73 67 81 CALM 30.11R Dallas DFW PTCLDY 88 70 55 SE9 30.03R HX 93 Houston Bush PTCLDY 83 76 79 S3 30.06R HX 91 Wash National PTCLDY 85 75 72 S7 30.03R HX 93 Wash Dulles PTCLDY 79 71 76 SW3 30.03S Baltimore PTCLDY 81 75 82 SW3 30.02R Philadelphia PTCLDY 82 73 74 S7 30.01S Newark CLOUDY 87 69 54 W8 29.98S HX 91 Laguardia MOCLDY 86 71 60 NE3 29.97S HX 91 J F K PTCLDY 81 76 84 SW6 29.99S Boston CLOUDY 83 60 45 W7 29.95S Pittsburg PTCLDY 79 68 69 W3 30.09R Akron PTCLDY 76 66 71 CALM 30.10R Cleveland PTCLDY 81 66 60 CALM 30.08R Cincinnati CLEAR 72 67 84 CALM 30.10R Columbus CLEAR 76 71 82 CALM 30.08S Detroit MOCLDY 77 71 82 CALM 30.05S Chicago O`Hare TSTM 70 66 87 W5 30.12R FOG Minneapolis RAIN 71 67 87 NE12 29.92S Indianapolis PTCLDY 79 72 79 S6 30.08S Toronto Canada CLEAR 73 61 64 NW10 30.02R $$

USA.gov is the U.S. government's official web portal to all federal, state and local government web resources and services.